This is the latest recevied weather packets stored in our database for station/object W4CPD. If no packets are shown the sender has not sent any weather packets the latest 10 day(s).
| Time | Temp. | Humidity | Pressure | Rain* | Wind** | Luminosity | Snow |
|---|---|---|---|---|---|---|---|
| 1778067614 | 21.67° C | 97% | 1014.5 hPa | 0 mm | - | - | - |
| 1778065514 | 21.67° C | 97% | 1014 hPa | 0 mm | - | - | - |
| 1778064914 | 21.67° C | 97% | 1013.9 hPa | 0 mm | - | - | - |
| 1778063714 | 21.67° C | 97% | 1013.6 hPa | 0 mm | - | - | - |
| 1778062815 | 21.67° C | 97% | 1013.4 hPa | 0 mm | - | - | - |
| 1778060731 | 21.11° C | 98% | 1013.2 hPa | 0 mm | - | - | - |
| 1778060417 | 21.11° C | 98% | 1013.2 hPa | 0 mm | - | - | - |
| 1778058028 | 20° C | 99% | 1013.4 hPa | 0 mm | - | - | - |
| 1778055914 | 18.89° C | 96% | 1013.8 hPa | 0 mm | - | - | - |
| 1778055017 | 18.89° C | 96% | 1013.8 hPa | 0 mm | - | - | - |
| 1778054116 | 18.89° C | 96% | 1013.9 hPa | 0 mm | - | - | - |
| 1778051418 | 18.89° C | 95% | 1014.2 hPa | 0 mm | - | - | - |
| 1778050515 | 19.44° C | 95% | 1014.3 hPa | 0 mm | - | - | - |
| 1778049939 | 19.44° C | 95% | 1014.4 hPa | 0 mm | - | - | - |
| 1778043629 | 19.44° C | 93% | 1015 hPa | 0 mm | - | - | - |
| 1778040315 | 20° C | 92% | 1015.7 hPa | 0 mm | - | - | - |
| 1778040030 | 20° C | 92% | 1015.6 hPa | 0 mm | - | - | - |
| 1778038515 | 20° C | 91% | 1015.5 hPa | 0 mm | - | - | - |
| 1778037913 | 20° C | 91% | 1015.7 hPa | 0 mm | - | - | - |
| 1778035214 | 20.56° C | 89% | 1015.6 hPa | 0 mm | - | - | - |
| 1778034913 | 20.56° C | 88% | 1015.5 hPa | 0 mm | - | - | - |
| 1778032214 | 21.11° C | 86% | 1015.2 hPa | 0 mm | - | - | - |
| 1778031313 | 21.67° C | 85% | 1015.2 hPa | 0 mm | - | - | - |
| 1778030713 | 21.67° C | 84% | 1015.2 hPa | 0 mm | - | - | - |
| 1778030132 | 21.67° C | 83% | 1015.3 hPa | 0 mm | - | - | - |
* Rain latest hour (hover to see other rain measurements)
** Current wind speed in m/s (hover to see current wind gust speed)